Location: Alsip
(41.6689°N, 87.7387°W)
Time: 14:27:52
(UTC+00:00)

Cosmos 2344 - Pass Details

Date: 14 July 2020
Orbit: 1249 x 2993 km, 63.3° (Epoch: 04 August)

Event Time Altitude Azimuth Distance (km) Brightness Sun altitude
Rises 03:17:09 0° 211° (SSW) 4,355 6.2 -16.7°
Reaches altitude 10° 03:20:01 10° 211° (SSW) 3,295 5.5 -17.0°
Maximum altitude 03:27:35 85° 124° (SE) 1,260 3.5 -17.9°
Drops below altitude 10° 03:35:27 10° 36° (NE) 3,419 6.1 -18.8°
Sets 03:38:28 0° 37° (NE) 4,529 6.7 -19.1°
